Location: Acheville
(50.3840°N, 2.8827°E)
Time: 10:52:56
(UTC+00:00)

IRAS Rocket - Pass Details

Date: 24 October 2021
Orbit: 847 x 878 km, 100.1° (Epoch: 30 November)

Event Time Altitude Azimuth Distance (km) Brightness Sun altitude
Rises 18:02:03 0° 21° (NNE) 3,458 7.2 -13.9°
Reaches altitude 10° 18:04:34 10° 27° (NNE) 2,511 6.4 -14.3°
Maximum altitude 18:09:54 46° 100° (E) 1,147 4.5 -15.2°
Drops below altitude 10° 18:15:09 10° 173° (S) 2,476 6.6 -16.0°
Sets 18:17:36 0° 180° (S) 3,403 7.3 -16.4°
